Kahului, HI

11:58 AM HST on February 23, 2017 (GMT -1000)
Kahului

Weather History for PHOG - May, 2011

Change the Weather History Date:

Thursday, May 26, 2011

  Actual Average Record
Temperature  
Mean Temperature 79 °F 77 °F  
Max Temperature 85 °F 85 °F 92 °F (1953)
Min Temperature 73 °F 68 °F 58 °F (1952)
Degree Days  
Heating Degree Days 0 0  
Month to date heating degree days 0 0  
Since 1 July heating degree days 0 0  
Cooling Degree Days 14 12  
Month to date cooling degree days 301 275  
Year to date cooling degree days 1344 1201  
Growing Degree Days 28 (Base 50)    
Moisture  
Dew Point 63 °F    
Average Humidity 61    
Maximum Humidity 73    
Minimum Humidity 48    
Precipitation  
Precipitation 0.00 in 0.02 in 0.21 in (1978)
Month to date precipitation 1.30 0.68  
Year to date precipitation 9.23 9.44  
Snow  
Snow 0.00 in - - ()
Month to date snowfall 0.0  
Since 1 July snowfall 0.0  
Snow Depth 0.00 in    
Sea Level Pressure  
Sea Level Pressure 30.10 in    
Wind  
Wind Speed 21 mph (NE)    
Max Wind Speed 32 mph    
Max Gust Speed 43 mph    
Visibility 10 miles    
Events      
T = Trace of Precipitation, MM = Missing Value Source: NWS Daily Summary

Daily Weather History Graph

Daily Weather History Graph

Search for Another Location

Airport or City:

Trip Planner

Search our weather history database for the weather conditions in past years. The results will help you decide how hot, cold, wet, or windy it might be!

Date:

Astronomy

May. 26, 2011 Rise Set
Actual Time 5:44 AM HST 7:00 PM HST
Civil Twilight 5:20 AM HST 7:25 PM HST
Nautical Twilight 4:51 AM HST 7:53 PM HST
Astronomical Twilight 4:22 AM HST 8:23 PM HST
Moon 1:35 AM HST (5/26) 2:06 PM HST (5/26)
Length of Visible Light 14h 04m
Length of Day
13h 15m
Waning Crescent, 30% of the Moon is Illuminated
May 26
Waning Crescent
Jun 1
New
Jun 8
First Quarter
Jun 15
Full
Jun 23
Last Quarter

Hourly Weather History & Observations

Time (HST) Temp. Heat Index Dew Point Humidity Pressure Visibility Wind Dir Wind Speed Gust Speed Precip Events Conditions
12:54 AM 73.0 °F - 62.1 °F 68% 30.11 in 10.0 mi NE 16.1 mph - N/A   Clear
1:54 AM 73.0 °F - 63.0 °F 71% 30.08 in 10.0 mi NE 19.6 mph 25.3 mph N/A   Clear
2:54 AM 73.0 °F - 63.0 °F 71% 30.07 in 10.0 mi NE 16.1 mph 21.9 mph N/A   Clear
3:54 AM 73.0 °F - 63.0 °F 71% 30.06 in 10.0 mi NE 18.4 mph - N/A   Clear
4:54 AM 73.0 °F - 63.0 °F 71% 30.06 in 10.0 mi ENE 16.1 mph 26.5 mph N/A   Clear
5:54 AM 73.0 °F - 62.1 °F 68% 30.07 in 10.0 mi NE 23.0 mph 32.2 mph N/A   Clear
6:54 AM 73.0 °F - 64.9 °F 76% 30.09 in 10.0 mi NE 21.9 mph 32.2 mph N/A   Clear
7:54 AM 75.9 °F - 62.1 °F 62% 30.10 in 10.0 mi ENE 20.7 mph 32.2 mph N/A   Partly Cloudy
8:54 AM 80.1 °F 81.2 °F 62.1 °F 54% 30.11 in 10.0 mi ENE 24.2 mph 32.2 mph N/A   Partly Cloudy
9:54 AM 82.0 °F 83.0 °F 62.1 °F 51% 30.11 in 10.0 mi ENE 18.4 mph 29.9 mph N/A   Partly Cloudy
10:54 AM 82.0 °F 83.1 °F 63.0 °F 52% 30.11 in 10.0 mi ENE 19.6 mph 33.4 mph N/A   Partly Cloudy
11:54 AM 84.9 °F 85.4 °F 62.1 °F 46% 30.09 in 10.0 mi ENE 25.3 mph 35.7 mph N/A   Partly Cloudy
12:54 PM 82.9 °F 84.0 °F 63.0 °F 51% 30.09 in 10.0 mi ENE 27.6 mph 38.0 mph N/A   Scattered Clouds
1:54 PM 84.0 °F 84.5 °F 62.1 °F 47% 30.07 in 10.0 mi ENE 20.7 mph 36.8 mph N/A   Partly Cloudy
2:54 PM 82.9 °F 84.0 °F 63.0 °F 51% 30.06 in 10.0 mi NE 27.6 mph 39.1 mph N/A   Clear
3:54 PM 82.9 °F 84.0 °F 63.0 °F 51% 30.06 in 10.0 mi NE 27.6 mph 41.4 mph N/A   Partly Cloudy
4:54 PM 81.0 °F 81.6 °F 60.1 °F 49% 30.07 in 10.0 mi NE 24.2 mph 32.2 mph N/A   Partly Cloudy
5:54 PM 78.1 °F - 63.0 °F 60% 30.09 in 10.0 mi NE 23.0 mph 29.9 mph N/A   Partly Cloudy
6:54 PM 75.9 °F - 63.0 °F 64% 30.11 in 10.0 mi NE 19.6 mph 26.5 mph N/A   Partly Cloudy
7:54 PM 75.0 °F - 64.0 °F 69% 30.13 in 10.0 mi NE 15.0 mph - N/A   Scattered Clouds
8:54 PM 73.0 °F - 64.9 °F 76% 30.15 in 10.0 mi NE 10.4 mph - N/A   Partly Cloudy
9:54 PM 73.0 °F - 64.9 °F 76% 30.15 in 10.0 mi ENE 12.7 mph 20.7 mph N/A   Clear
10:54 PM 73.9 °F - 64.9 °F 73% 30.15 in 10.0 mi NE 17.3 mph 26.5 mph 0.00 in   Clear
11:54 PM 73.0 °F - 64.0 °F 73% 30.14 in 10.0 mi NE 11.5 mph - N/A   Partly Cloudy